Back to catalog

STARLINK-5623

AliveCommunicationsVLEO
NORAD 55405·PAYLOAD·🇺🇸 United States

Launched Jan 31, 2023 from Vandenberg Space Force Base

Loading…

Next Passes (next 24 hours)

TLE

FreshSource: CelesTrak SupGP

Epoch: Sep 14, 2026, 14:11 UTC

1 55405C 23014Q   26257.59145833  .00037268  00000+0  31229-2 0  2570
2 55405  70.0002 308.2072 0003571 272.6182 321.1075 14.98314105    12

Track STARLINK-5623 in real time with AllMySat

Download on the App Store